#datint,netname,site,siteID,timestamp,IntT,BattV,AirT2,AirT,AirT_Avg,AirT_Max,AirT_Min,RH_Avg,RH_Max,RH_Min,EA_Avg,Td_Avg,Td_Max,Td_Min,WindS_Smp,WindS_Avg,WindD_Avg,WindD_SD,WindS_Max,ETo,ETr,SoilT4,SoilT8,SoilVWC8,SolarW_Avg,wetstate_Avg,wetT_Avg,Precip_accum,Precip_WPG,Precip_TB
15min,AgWx,beryljct,423,10JAN2019:23:30:00,30.6,12.92,31.9,32.0,32.1,32.6,31.2,90,91,88,0.551,29.4,30.1,28.1,0,0.1,176,0.2,0.7,-0.00023,-0.00037,.,33.2,21,0,0,35.3,9.45,0.00,0.00
15min,AgWx,bigpiney,439,10JAN2019:00:00:00,9.0,12.69,7.1,6.7,6.4,6.9,6.2,86,87,86,0.178,3.2,3.7,2.9,2.74,2.7,307,12,3.3,-0.00005,-0.00006,28.5,30.2,8,0,0,0.0,0.00,0.00,0.00
15min,AgWx,bigpiney,439,10JAN2019:00:15:00,9.2,12.68,8.6,7.5,7.0,7.5,6.7,86,87,85,0.185,3.8,4.3,3.3,0,1.0,321,21,3.1,-0.00009,-0.00012,28.4,30.2,8,0,0,0.0,0.00,0.00,0.00
15min,AgWx,bigpiney,439,10JAN2019:00:30:00,9.3,12.67,8.4,7.5,8.2,8.8,7.5,86,87,85,0.183,4.9,5.5,3.9,2.039,1.3,336,3.8,2.9,-0.00008,-0.00011,28.4,30.1,8,0,0,0.0,0.00,0.00,0.00
15min,AgWx,bigpiney,439,10JAN2019:00:45:00,9.4,12.67,7.4,6.9,7.0,7.8,6.5,86,87,85,0.180,3.7,4.6,3.0,0,1.8,327,17,2.8,-0.00007,-0.00008,28.4,30.2,8,0,0,0.0,0.00,0.00,0.00
15min,AgWx,bigpiney,439,10JAN2019:01:00:00,9.4,12.65,8.1,7.8,7.4,7.8,6.9,87,87,86,0.188,4.3,4.7,3.7,1.885,0.8,259,37,2.0,-0.00010,-0.00014,28.4,30.1,8,0,0,0.0,0.00,0.00,0.00
15min,AgWx,bigpiney,439,10JAN2019:01:15:00,9.2,12.65,6.9,6.7,7.1,8.2,6.5,86,88,84,0.177,3.8,5.4,2.7,2.543,1.8,239,26,2.7,-0.00007,-0.00009,28.3,30.1,8,0,0,0.0,0.00,0.00,0.00
15min,AgWx,bigpiney,439,10JAN2019:01:30:00,9.0,12.64,7.2,6.5,6.2,7.8,5.2,85,88,83,0.177,2.8,4.9,1.2,2.368,2.8,217,9.1,4.2,-0.00005,-0.00005,28.3,30.1,8,0,0,0.0,0.00,0.00,0.00
15min,AgWx,bigpiney,439,10JAN2019:01:45:00,8.8,12.63,5.9,7.9,7.5,9.8,5.3,86,90,81,0.178,4.2,7.1,1.5,2.214,1.8,225,8.2,3.7,-0.00007,-0.00009,28.3,30.2,8,0,0,0.0,0.00,0.00,0.00
15min,AgWx,bigpiney,439,10JAN2019:02:00:00,8.6,12.62,8.8,8.4,8.2,9.8,5.9,85,88,80,0.186,4.6,6.8,1.0,1.6,1.4,205,22,4.3,-0.00008,-0.00010,28.3,30.1,8,0,0,0.0,0.00,0.00,0.00
15min,AgWx,bigpiney,439,10JAN2019:02:15:00,8.3,12.62,10.7,8.7,6.8,8.7,5.0,84,90,80,0.201,3.0,6.1,0.6,1.447,1.9,223,11,3.1,-0.00006,-0.00008,28.2,30.1,8,0,0,0.0,0.00,0.00,0.00
15min,AgWx,bigpiney,439,10JAN2019:02:30:00,8.1,12.62,5.4,5.0,6.6,9.8,4.9,84,89,81,0.162,2.8,6.9,0.8,2.674,2.8,222,7.7,4.3,-0.00005,-0.00005,28.2,30.1,8,0,0,0.0,0.00,0.00,0.00
15min,AgWx,bigpiney,439,10JAN2019:02:45:00,7.9,12.61,5.9,5.3,5.2,5.4,4.9,85,86,84,0.165,1.6,2.0,1.3,2.368,1.8,225,11,2.8,-0.00006,-0.00008,28.2,30.1,8,0,0,0.0,0.00,0.00,0.00
15min,AgWx,bigpiney,439,10JAN2019:03:00:00,7.8,12.6,5.7,5.2,5.3,5.6,5.1,85,85,84,0.163,1.6,2.1,1.4,1.71,1.9,231,8.8,2.6,-0.00006,-0.00007,28.1,30.0,8,0,0,0.0,0.00,0.00,0.00
15min,AgWx,bigpiney,439,10JAN2019:03:15:00,7.9,12.6,6.4,5.8,5.7,6.2,5.1,85,86,84,0.167,2.1,2.8,1.4,1.074,1.6,242,15,3.5,-0.00007,-0.00009,28.1,30.1,8,0,0,0.0,0.00,0.00,0.00
15min,AgWx,bigpiney,439,10JAN2019:03:30:00,8.0,12.59,4.5,4.5,5.4,5.9,4.5,84,85,84,0.156,1.7,2.4,0.6,2.28,1.0,271,39,2.4,-0.00008,-0.00011,28.1,30.0,8,0,0,0.0,0.00,0.00,0.00
15min,AgWx,bigpiney,439,10JAN2019:03:45:00,7.9,12.58,4.9,4.5,4.5,4.6,4.3,86,87,83,0.162,1.2,1.4,0.4,0,0.8,288,8.5,2.2,-0.00009,-0.00012,28.1,30.1,8,0,0,0.0,0.00,0.00,0.00
15min,AgWx,bigpiney,439,10JAN2019:04:00:00,7.6,12.56,4.8,4.6,4.5,4.8,4.3,87,87,86,0.163,1.4,1.8,1.2,1.403,0.4,339,40,1.6,-0.00010,-0.00015,28.0,30.0,8,0,0,0.0,0.00,0.00,0.00
15min,AgWx,bigpiney,439,10JAN2019:04:15:00,7.5,12.57,3.9,3.5,3.8,4.5,3.3,86,87,86,0.154,0.5,1.4,0.0,3.201,1.6,344,21,3.3,-0.00006,-0.00008,28.0,30.0,8,0,0,0.0,0.00,0.00,0.00
15min,AgWx,bigpiney,439,10JAN2019:04:30:00,7.3,12.56,3.3,2.8,3.0,3.5,2.8,86,87,86,0.149,-0.2,0.3,-0.5,1.556,2.5,327,12,3.3,-0.00005,-0.00006,28.0,30.0,8,0,0,0.0,0.00,0.00,0.00
15min,AgWx,bigpiney,439,10JAN2019:04:45:00,7.0,12.55,3.6,3.0,2.8,3.1,2.5,86,86,86,0.151,-0.5,-0.0,-0.8,1.513,1.4,342,17,2.2,-0.00007,-0.00008,27.9,30.0,8,0,0,0.0,0.00,0.00,0.00
15min,AgWx,bigpiney,439,10JAN2019:05:00:00,6.7,12.53,4.5,3.6,3.2,3.6,3.0,86,87,86,0.155,-0.0,0.5,-0.2,0.504,1.3,279,39,1.8,-0.00007,-0.00009,27.9,29.9,8,0,0,0.0,0.00,0.00,0.00
15min,AgWx,bigpiney,439,10JAN2019:05:15:00,6.4,12.52,4.9,4.1,3.5,4.1,3.0,86,87,85,0.160,0.2,1.1,-0.6,1.885,0.9,256,30,2.0,-0.00008,-0.00011,27.9,29.9,8,0,0,0.0,0.00,0.00,0.00
15min,AgWx,bigpiney,439,10JAN2019:05:30:00,6.2,12.51,6.4,5.6,4.8,5.6,3.8,87,88,86,0.172,1.8,2.7,0.5,0,1.4,200,19,3.4,-0.00007,-0.00009,27.9,29.9,8,0,0,0.0,0.00,0.00,0.00
15min,AgWx,bigpiney,439,10JAN2019:05:45:00,6.1,12.51,5.7,5.3,5.3,6.1,4.5,87,88,85,0.168,2.2,3.2,1.0,0,0.6,30,20,2.9,-0.00010,-0.00014,27.8,29.9,8,0,0,0.0,0.00,0.00,0.00
15min,AgWx,bigpiney,439,10JAN2019:06:00:00,6.2,12.51,3.7,3.6,4.4,5.3,3.5,86,87,85,0.153,1.0,2.2,-0.0,1.622,1.9,360,33,3.4,-0.00006,-0.00007,27.8,30.0,8,0,0,0.0,0.00,0.00,0.00
15min,AgWx,bigpiney,439,10JAN2019:06:15:00,6.2,12.49,3.9,3.3,3.3,3.6,3.1,85,86,85,0.151,-0.1,0.3,-0.5,1.644,1.1,277,18,2.5,-0.00007,-0.00010,27.8,29.9,8,0,0,0.0,0.00,0.00,0.00
15min,AgWx,bigpiney,439,10JAN2019:06:30:00,6.2,12.49,5.5,4.4,3.6,4.4,3.3,86,86,85,0.161,0.3,1.2,-0.1,1.184,1.6,245,21,2.3,-0.00006,-0.00008,27.8,29.9,8,0,0,0.0,0.00,0.00,0.00
15min,AgWx,bigpiney,439,10JAN2019:06:45:00,6.4,12.48,6.4,5.2,5.1,5.6,4.5,86,87,85,0.165,1.9,2.5,1.3,1.315,1.1,241,25,2.6,-0.00008,-0.00011,27.7,29.8,8,0,0,0.0,0.00,0.00,0.00
15min,AgWx,bigpiney,439,10JAN2019:07:00:00,6.5,12.47,6.4,5.8,5.3,5.8,4.9,86,86,85,0.171,2.0,2.6,1.3,2.258,2.4,223,13,4.0,-0.00005,-0.00006,27.7,29.9,8,0,0,0.0,0.00,0.00,0.00
15min,AgWx,bigpiney,439,10JAN2019:07:15:00,6.8,12.46,5.6,5.3,5.5,5.8,5.2,85,86,85,0.165,2.0,2.6,1.7,2.455,1.9,225,14,2.9,-0.00006,-0.00007,27.7,29.9,8,0,0,0.0,0.00,0.00,0.00
15min,AgWx,bigpiney,439,10JAN2019:07:30:00,7.0,12.46,7.0,6.3,5.8,6.3,5.1,86,86,85,0.174,2.4,2.9,1.6,1.513,2.1,227,9.0,3.7,-0.00006,-0.00007,27.6,29.8,8,0,0,0.0,0.00,0.00,0.00
15min,AgWx,bigpiney,439,10JAN2019:07:45:00,7.3,12.49,6.7,6.5,6.8,7.4,6.3,85,86,84,0.173,3.3,4.0,2.7,0.395,1.1,200,53,2.5,-0.00008,-0.00011,27.6,29.8,8,4,0,0.0,0.00,0.00,0.00
15min,AgWx,bigpiney,439,10JAN2019:08:00:00,7.8,12.7,6.5,6.6,6.8,7.1,6.4,85,86,84,0.173,3.3,3.6,2.6,1.929,0.9,23,13,2.7,-0.00008,-0.00011,27.6,29.7,8,13,0,0.0,0.00,0.00,0.00
15min,AgWx,bigpiney,439,10JAN2019:08:15:00,8.2,12.76,5.7,5.3,5.5,6.5,5.2,84,85,84,0.165,1.8,2.7,1.4,2.039,1.3,36,27,2.4,-0.00014,-0.00014,27.5,29.8,8,21,0,0.0,0.00,0.00,0.00
15min,AgWx,bigpiney,439,10JAN2019:08:30:00,8.5,13.13,6.4,6.0,5.7,6.1,5.3,86,86,85,0.173,2.4,2.9,1.8,1.14,1.0,56,19,2.2,-0.00008,-0.00008,27.5,29.8,8,41,0,0.0,0.00,0.00,0.00
15min,AgWx,bigpiney,439,10JAN2019:08:45:00,8.8,13.51,6.8,5.9,6.0,6.2,5.8,86,86,85,0.169,2.6,2.9,2.3,1.951,1.1,77,24,2.4,0.00001,0.00002,27.5,29.8,8,58,0,0.0,0.00,0.00,0.00
15min,AgWx,bigpiney,439,10JAN2019:09:00:00,9.3,15.02,7.2,6.9,6.4,7.0,5.9,85,86,85,0.178,3.0,3.6,2.4,0.658,1.2,107,36,2.8,0.00008,0.00009,27.5,29.7,8,78,0,0.0,0.00,0.00,0.00
15min,AgWx,bigpiney,439,10JAN2019:09:15:00,9.9,15.02,8.1,7.8,7.3,7.8,6.9,85,86,85,0.187,3.7,4.5,3.3,0,1.8,8.1,23,3.7,0.00014,0.00016,27.5,29.8,8,101,0,0.0,0.00,0.00,0.00
15min,AgWx,bigpiney,439,10JAN2019:09:30:00,10.9,14.98,9.5,8.6,8.3,8.8,7.7,85,86,85,0.191,4.8,5.4,4.2,0.175,0.8,54,44,2.5,0.00020,0.00022,27.5,29.7,8,128,0,0.0,0.00,0.00,0.00
15min,AgWx,bigpiney,439,10JAN2019:09:45:00,11.9,14.98,10.1,9.5,9.2,9.6,8.6,85,86,84,0.199,5.6,6.2,4.9,4.143,1.3,30,30,4.1,0.00026,0.00029,27.5,29.7,8,150,0,0.0,0.00,0.00,0.00
15min,AgWx,bigpiney,439,10JAN2019:10:00:00,12.9,14.98,10.5,9.9,9.5,9.9,9.2,85,85,84,0.201,5.8,6.2,5.3,4.099,3.0,354,26,5.0,0.00031,0.00035,27.5,29.7,8,174,0,0.0,0.00,0.00,0.00
15min,AgWx,bigpiney,439,10JAN2019:10:15:00,13.7,15.03,11.8,10.7,10.3,10.7,9.8,84,85,83,0.207,6.4,6.9,5.8,1.556,2.6,333,23,4.2,0.00033,0.00037,27.5,29.7,8,163,0,0.0,0.00,0.00,0.00
15min,AgWx,bigpiney,439,10JAN2019:10:30:00,14.7,14.98,13.0,12.5,11.4,12.6,10.5,84,84,83,0.222,7.4,8.8,6.5,0.417,1.4,312,58,3.3,0.00043,0.00047,27.5,29.7,8,208,0,0.0,0.00,0.00,0.00
15min,AgWx,bigpiney,439,10JAN2019:10:45:00,15.9,14.98,14.7,14.2,13.4,14.4,12.5,83,84,82,0.238,9.2,10.0,8.4,2.674,2.3,309,22,4.3,0.00055,0.00061,27.5,29.7,8,262,0,0.0,0.00,0.00,0.00
15min,AgWx,bigpiney,439,10JAN2019:11:00:00,17.4,15.1,17.1,16.6,15.1,16.7,13.9,81,82,80,0.256,10.4,12.0,9.1,0,1.5,282,36,4.0,0.00063,0.00069,27.5,29.7,8,273,0,0.0,0.00,0.00,0.00
15min,AgWx,bigpiney,439,10JAN2019:11:15:00,19.1,14.99,19.4,18.0,17.0,18.0,16.4,79,81,77,0.267,11.7,12.4,11.0,0,2.2,309,18,4.4,0.00080,0.00088,27.5,29.7,8,340,0,0.0,0.00,0.00,0.00
15min,AgWx,bigpiney,439,10JAN2019:11:30:00,20.9,14.53,19.4,18.5,18.0,19.0,17.3,77,79,76,0.265,12.0,13.2,11.2,0.833,2.2,354,25,3.9,0.00086,0.00095,27.5,29.6,8,351,0,0.0,0.00,0.00,0.00
15min,AgWx,bigpiney,439,10JAN2019:11:45:00,22.6,14.54,19.4,19.5,19.0,19.6,18.2,75,77,75,0.271,12.5,13.1,11.7,2.324,1.9,337,23,3.3,0.00078,0.00087,27.5,29.6,8,293,0,0.0,0.00,0.00,0.00
15min,AgWx,bigpiney,439,10JAN2019:12:00:00,23.8,14.5,20.5,20.7,20.0,21.1,19.2,74,75,73,0.280,13.1,14.0,12.3,1.82,1.7,356,26,3.5,0.00081,0.00090,27.6,29.7,8,293,0,0.0,0.00,0.00,0.00
15min,AgWx,bigpiney,439,10JAN2019:12:15:00,25.1,14.47,23.1,23.4,21.9,23.7,20.5,72,74,70,0.301,14.3,15.8,13.3,2.258,1.1,86,30,2.5,0.00092,0.00101,27.6,29.7,8,315,0,0.0,0.00,0.00,0.00
15min,AgWx,bigpiney,439,10JAN2019:12:30:00,26.4,14.48,23.4,23.2,23.0,23.7,22.4,71,72,70,0.299,14.9,15.7,14.3,0.088,1.4,45,39,3.5,0.00100,0.00110,27.6,29.7,8,334,0,0.0,0.00,0.00,0.00
15min,AgWx,bigpiney,439,10JAN2019:12:45:00,27.7,14.49,24.2,23.3,24.2,25.1,23.2,70,72,69,0.303,15.8,16.8,14.9,2.477,2.4,79,33,4.2,0.00087,0.00099,27.6,29.7,8,276,0,0.0,0.00,0.00,0.00
15min,AgWx,bigpiney,439,10JAN2019:13:00:00,28.3,14.45,24.0,23.7,23.8,24.3,23.4,71,72,69,0.308,15.7,16.2,15.3,4.012,3.8,51,16,5.8,0.00087,0.00101,27.7,29.7,8,283,0,0.0,0.00,0.00,0.00
15min,AgWx,bigpiney,439,10JAN2019:13:15:00,28.9,14.42,26.4,25.9,24.3,25.9,23.4,71,72,69,0.332,16.1,17.4,15.4,3.135,4.1,29,18,6.1,0.00109,0.00125,27.7,29.7,8,385,0,0.0,0.00,0.00,0.00
15min,AgWx,bigpiney,439,10JAN2019:13:30:00,29.8,14.42,26.8,26.4,26.1,26.4,25.8,68,69,67,0.330,16.8,17.7,16.3,3.595,3.8,101,25,5.5,0.00087,0.00103,27.7,29.7,8,263,0,0.0,0.00,0.00,0.00
15min,AgWx,bigpiney,439,10JAN2019:13:45:00,30.3,14.42,25.8,25.9,26.0,26.4,25.6,68,69,67,0.322,16.9,17.6,16.4,5.349,4.5,109,14,6.2,0.00081,0.00098,27.8,29.6,8,241,0,0.0,0.00,0.00,0.00
15min,AgWx,bigpiney,439,10JAN2019:14:00:00,30.4,14.42,26.2,25.9,25.9,26.3,25.5,68,69,67,0.322,16.8,17.4,16.3,2.938,3.8,97,13,5.4,0.00081,0.00097,27.8,29.7,8,250,0,0.0,0.00,0.00,0.00
15min,AgWx,bigpiney,439,10JAN2019:14:15:00,30.4,14.42,26.4,26.3,26.2,26.6,25.9,68,69,67,0.328,17.2,17.8,16.6,4.143,5.2,109,8.9,8.3,0.00074,0.00093,27.8,29.7,8,218,0,0.0,0.00,0.00,0.00
15min,AgWx,bigpiney,439,10JAN2019:14:30:00,30.3,14.41,26.5,26.0,26.6,27.0,26.0,68,69,67,0.330,17.4,17.9,16.9,4.472,4.0,85,17,5.9,0.00070,0.00085,27.9,29.7,8,203,0,0.0,0.00,0.00,0.00
15min,AgWx,bigpiney,439,10JAN2019:14:45:00,30.3,14.43,26.8,26.8,26.4,27.0,25.8,69,71,67,0.334,17.5,18.4,16.9,4.911,2.9,83,33,5.2,0.00061,0.00073,27.9,29.7,8,180,0,0.0,0.00,0.00,0.00
15min,AgWx,bigpiney,439,10JAN2019:15:00:00,30.3,14.41,26.0,26.0,26.4,26.8,26.0,68,71,67,0.336,17.3,18.0,16.8,4.954,3.9,64,19,5.6,0.00058,0.00073,27.9,29.8,8,171,0,0.0,0.00,0.00,0.00
15min,AgWx,bigpiney,439,10JAN2019:15:15:00,30.2,14.44,26.3,25.8,25.9,26.3,25.5,70,72,69,0.332,17.5,18.2,17.0,2.609,3.2,50,26,5.0,0.00043,0.00054,28.0,29.8,8,111,0,0.0,0.00,0.00,0.00
15min,AgWx,bigpiney,439,10JAN2019:15:30:00,29.8,14.45,26.0,25.8,25.8,26.0,25.6,70,71,69,0.331,17.3,17.9,17.0,3.244,3.8,23,19,5.8,0.00037,0.00049,28.0,29.8,8,84,0,0.0,0.00,0.00,0.00
15min,AgWx,bigpiney,439,10JAN2019:15:45:00,29.4,14.51,26.2,25.9,25.9,26.1,25.6,70,72,69,0.342,17.6,18.2,16.9,3.902,3.6,7.4,18,5.1,0.00031,0.00043,28.1,29.8,8,64,0,0.0,0.00,0.00,0.00
15min,AgWx,bigpiney,439,10JAN2019:16:00:00,29.1,14.47,27.0,26.0,25.8,26.0,25.6,71,72,71,0.341,17.8,18.2,17.5,3.135,3.4,7.3,13,4.7,0.00027,0.00037,28.1,29.8,8,88,0,0.0,0.00,0.00,0.00
15min,AgWx,bigpiney,439,10JAN2019:16:15:00,28.9,14.49,26.2,25.9,25.9,26.1,25.7,71,72,70,0.335,17.7,18.2,17.3,3.639,3.0,20,12,4.4,0.00015,0.00024,28.1,29.8,8,103,0,0.0,0.00,0.00,0.00
15min,AgWx,bigpiney,439,10JAN2019:16:30:00,28.8,14.48,26.2,25.9,25.9,26.1,25.7,71,72,70,0.338,17.8,18.2,17.6,2.389,2.4,1.1,22,4.7,0.00000,0.00007,28.2,29.8,8,74,0,0.0,0.00,0.00,0.00
15min,AgWx,bigpiney,439,10JAN2019:16:45:00,28.6,13.41,25.9,25.6,25.7,25.9,25.6,72,73,71,0.344,18.0,18.3,17.7,0.57,1.8,331,9.2,2.8,-0.00011,-0.00007,28.2,29.9,8,51,0,0.0,0.00,0.00,0.00
15min,AgWx,bigpiney,439,10JAN2019:17:00:00,28.3,13.12,25.7,25.4,25.5,25.6,25.4,74,75,73,0.344,18.4,18.7,18.1,1.666,1.4,329,11,1.9,-0.00023,-0.00021,28.2,29.9,8,25,0,0.0,0.00,0.00,0.00
15min,AgWx,bigpiney,439,10JAN2019:17:15:00,27.9,12.99,25.5,25.1,25.2,25.4,25.1,74,75,74,0.345,18.3,18.4,18.2,0.811,0.6,313,14,1.7,-0.00005,-0.00008,28.2,29.9,8,8,0,0.0,0.00,0.00,0.00
15min,AgWx,bigpiney,439,10JAN2019:17:30:00,27.5,12.94,25.4,25.0,25.0,25.1,24.9,75,75,74,0.341,18.1,18.3,17.9,1.688,1.7,283,17,2.5,-0.00002,-0.00003,28.3,29.9,8,1,0,0.0,0.00,0.00,0.00
15min,AgWx,bigpiney,439,10JAN2019:17:45:00,27.0,12.91,24.6,24.2,24.6,25.0,24.2,76,77,74,0.343,18.1,18.3,17.9,2.455,2.1,270,26,2.5,-0.00002,-0.00001,28.3,29.9,8,0,0,0.0,0.00,0.00,0.00
15min,AgWx,bigpiney,439,10JAN2019:18:00:00,26.4,12.89,23.0,23.6,24.3,24.6,23.6,76,77,75,0.330,17.9,18.2,17.2,4.275,2.9,243,6.6,4.3,0.00000,0.00001,28.3,29.9,8,0,0,0.0,0.00,0.00,0.00
15min,AgWx,bigpiney,439,10JAN2019:18:15:00,25.4,12.87,21.2,21.1,21.9,23.5,21.1,79,81,76,0.315,16.5,17.1,16.2,4.253,4.1,240,4.8,4.6,0.00001,0.00002,28.3,30.0,8,0,0,0.0,0.00,0.00,0.00
15min,AgWx,bigpiney,439,10JAN2019:18:30:00,24.2,12.85,22.6,20.9,20.5,21.1,19.9,81,83,81,0.316,15.7,16.3,15.2,3.442,3.3,244,3.5,4.4,-0.00000,0.00000,28.4,30.0,8,0,0,0.0,0.00,0.00,0.00
15min,AgWx,bigpiney,439,10JAN2019:18:45:00,23.0,12.85,17.8,17.7,20.5,22.4,17.7,80,83,78,0.280,15.3,17.1,12.8,3.442,4.0,242,4.5,5.6,0.00001,0.00002,28.4,30.0,8,0,0,0.0,0.00,0.00,0.00
15min,AgWx,bigpiney,439,10JAN2019:19:00:00,21.7,12.83,17.1,17.3,18.8,22.0,17.3,82,87,77,0.273,14.4,17.9,12.9,4.472,4.7,247,3.0,6.0,0.00001,0.00002,28.4,30.0,8,0,0,0.0,0.00,0.00,0.00
15min,AgWx,bigpiney,439,10JAN2019:19:15:00,20.5,12.83,15.2,15.7,16.0,17.2,15.4,84,86,83,0.266,12.2,12.8,11.6,1.863,3.8,251,6.4,4.5,-0.00000,0.00000,28.5,30.0,8,0,0,0.0,0.00,0.00,0.00
15min,AgWx,bigpiney,439,10JAN2019:19:30:00,19.5,12.81,16.5,15.9,15.8,16.2,15.4,86,87,85,0.266,12.3,12.7,11.7,4.604,3.8,242,5.5,5.3,-0.00001,-0.00000,28.5,30.0,8,0,0,0.0,0.00,0.00,0.00
15min,AgWx,bigpiney,439,10JAN2019:19:45:00,18.8,12.79,15.9,15.9,16.2,16.9,15.5,85,86,83,0.267,12.6,13.5,11.5,3.771,3.4,236,22,5.0,-0.00001,-0.00001,28.5,30.0,8,0,0,0.0,0.00,0.00,0.00
15min,AgWx,bigpiney,439,10JAN2019:20:00:00,18.5,12.8,18.6,17.6,16.1,17.6,15.6,86,87,85,0.293,12.6,14.5,12.0,1.776,3.7,231,15,5.2,-0.00001,-0.00000,28.5,30.0,8,0,0,0.0,0.00,0.00,0.00
15min,AgWx,bigpiney,439,10JAN2019:20:15:00,18.5,12.77,18.8,18.1,17.9,18.5,17.2,85,87,83,0.290,14.3,14.9,13.1,2.938,1.9,254,72,4.0,-0.00003,-0.00004,28.5,30.1,8,0,0,0.0,0.00,0.00,0.00
15min,AgWx,bigpiney,439,10JAN2019:20:30:00,18.9,12.78,19.1,18.5,18.1,18.6,17.7,86,86,84,0.297,14.5,15.0,13.8,3.201,3.8,217,7.1,5.2,-0.00001,-0.00000,28.5,30.1,8,0,0,0.0,0.00,0.00,0.00
15min,AgWx,bigpiney,439,10JAN2019:20:45:00,19.3,12.77,18.7,18.4,18.6,19.0,18.3,85,85,84,0.295,14.9,15.1,14.6,0.241,1.8,219,15,3.5,-0.00003,-0.00004,28.5,30.2,8,0,0,0.0,0.00,0.00,0.00
15min,AgWx,bigpiney,439,10JAN2019:21:00:00,19.6,12.77,18.9,18.3,18.6,18.9,18.3,86,86,85,0.295,14.9,15.3,14.6,2.346,2.1,265,55,3.7,-0.00003,-0.00003,28.5,30.1,8,0,0,0.0,0.00,0.00,0.00
15min,AgWx,bigpiney,439,10JAN2019:21:15:00,19.8,12.76,18.5,17.3,18.3,18.8,17.1,85,86,84,0.282,14.6,15.2,13.3,1.841,1.6,49,54,3.1,-0.00004,-0.00005,28.5,30.1,8,0,0,0.0,0.00,0.00,0.00
15min,AgWx,bigpiney,439,10JAN2019:21:30:00,19.7,12.75,18.8,18.3,18.1,18.5,17.4,86,87,84,0.298,14.6,15.1,13.7,0.417,0.8,170,38,2.5,-0.00006,-0.00008,28.6,30.1,8,0,0,0.0,0.00,0.00,0.00
15min,AgWx,bigpiney,439,10JAN2019:21:45:00,19.3,12.74,14.0,15.2,17.8,18.5,15.0,86,87,82,0.260,14.2,15.1,10.9,0.132,2.1,105,22,3.6,-0.00003,-0.00003,28.6,30.1,8,0,0,0.0,0.00,0.00,0.00
15min,AgWx,bigpiney,439,10JAN2019:22:00:00,18.8,12.72,17.6,18.4,16.9,18.4,14.8,88,91,86,0.304,14.1,15.4,11.3,4.099,2.7,226,18,4.9,-0.00002,-0.00003,28.6,30.1,8,0,0,0.0,0.00,0.00,0.00
15min,AgWx,bigpiney,439,10JAN2019:22:15:00,18.2,12.73,18.9,17.2,17.0,18.3,15.4,88,91,84,0.294,13.9,15.6,11.7,4.056,3.1,258,7.2,4.7,-0.00002,-0.00002,28.6,30.1,8,0,0,0.0,0.00,0.00,0.00
15min,AgWx,bigpiney,439,10JAN2019:22:30:00,17.4,12.72,11.9,11.2,13.3,17.5,11.1,87,90,85,0.223,10.2,15.0,8.3,2.587,3.3,249,9.2,4.8,-0.00001,-0.00001,28.6,30.2,8,0,0,0.0,0.00,0.00,0.00
15min,AgWx,bigpiney,439,10JAN2019:22:45:00,16.5,12.71,13.9,13.4,12.2,13.5,10.7,90,91,88,0.250,9.7,11.0,7.9,4.867,5.6,237,8.6,7.9,-0.00000,-0.00000,28.6,30.3,8,0,0,0.0,0.00,0.00,0.00
15min,AgWx,bigpiney,439,10JAN2019:23:00:00,15.9,12.71,11.7,11.7,12.2,13.5,11.4,88,90,87,0.229,9.4,11.0,8.3,0.767,3.6,247,26,5.4,-0.00001,-0.00001,28.6,30.2,8,0,0,0.0,0.00,0.00,0.00
15min,AgWx,bigpiney,439,10JAN2019:23:15:00,15.3,12.66,12.5,14.5,12.6,14.8,11.5,90,92,88,0.267,10.2,12.9,8.7,2.433,1.9,298,37,2.8,-0.00003,-0.00004,28.5,30.1,8,0,0,0.0,0.00,0.00,0.00
15min,AgWx,bigpiney,439,10JAN2019:23:30:00,14.8,12.68,9.7,9.5,11.1,14.3,9.5,88,91,86,0.209,8.3,12.1,6.6,1.03,0.8,45,50,2.4,-0.00005,-0.00006,28.5,30.2,8,0,0,0.0,0.00,0.00,0.00
15min,AgWx,bigpiney,439,10JAN2019:23:45:00,14.1,12.66,10.2,10.8,9.9,11.2,9.2,90,91,89,0.223,7.5,9.2,6.6,4.143,2.4,250,21,4.4,-0.00002,-0.00003,28.5,30.2,8,0,0,0.0,0.00,0.00,0.00
15min,AgWx,blo,425,10JAN2019:00:00:00,22.0,12.97,24.4,24.5,25.9,27.2,24.5,78,80,75,0.355,20.0,20.9,18.5,1.359,2.0,274,31,3.4,-0.00010,-0.00013,32.9,34.3,21,0,100,27.5,13.33,0.00,0.00
15min,AgWx,blo,425,10JAN2019:00:15:00,22.0,12.95,25.6,25.8,25.1,25.9,24.4,80,81,79,0.372,19.7,20.5,19.0,1.973,1.7,237,6.9,2.6,-0.00012,-0.00015,32.9,34.3,21,0,100,26.7,13.33,0.00,0.00
15min,AgWx,blo,425,10JAN2019:00:30:00,21.9,12.95,24.1,23.8,25.6,26.7,23.5,78,79,76,0.344,19.7,20.6,17.7,1.008,0.9,242,22,2.6,-0.00015,-0.00021,32.9,34.3,21,0,100,27.1,13.33,0.00,0.00
15min,AgWx,blo,425,10JAN2019:00:45:00,21.7,12.95,25.9,25.4,25.2,25.8,23.8,80,81,79,0.376,19.9,20.4,18.3,0,0.1,235,0.1,1.1,-0.00021,-0.00033,32.9,34.3,21,0,100,27.3,13.33,0.00,0.00
15min,AgWx,blo,425,10JAN2019:01:00:00,21.6,12.94,24.7,24.5,25.0,25.6,24.5,82,84,80,0.376,20.4,20.8,19.9,0,0.3,215,44,1.4,-0.00020,-0.00030,32.9,34.3,21,0,100,27.3,13.33,0.00,0.00
15min,AgWx,blo,425,10JAN2019:01:15:00,21.4,12.93,25.0,24.8,24.8,25.0,24.5,85,86,84,0.388,20.8,21.2,20.3,0.526,0.2,329,32,1.4,-0.00020,-0.00031,32.9,34.3,21,0,100,26.4,13.34,0.00,0.00
15min,AgWx,blo,425,10JAN2019:01:30:00,21.4,12.93,24.2,24.6,24.8,25.0,24.5,86,86,85,0.386,21.1,21.3,20.6,1.359,1.1,318,36,2.0,-0.00015,-0.00020,32.9,34.3,21,0,100,27.1,13.33,0.00,0.00
15min,AgWx,blo,425,10JAN2019:01:45:00,21.4,12.92,23.6,23.5,23.1,24.6,22.3,85,86,84,0.364,19.3,20.9,18.3,1.688,1.3,241,9.6,2.5,-0.00013,-0.00018,32.9,34.3,21,0,100,26.4,13.33,0.00,0.00
15min,AgWx,blo,425,10JAN2019:02:00:00,21.4,12.92,24.2,24.2,24.3,24.7,23.5,85,87,84,0.383,20.5,21.1,19.5,1.03,0.9,64,69,2.0,-0.00016,-0.00022,32.9,34.3,21,0,100,26.9,13.33,0.00,0.00
15min,AgWx,blo,425,10JAN2019:02:15:00,21.3,12.91,23.5,23.4,23.8,24.2,23.4,88,89,87,0.380,20.8,21.3,20.5,0.789,0.4,254,48,1.2,-0.00018,-0.00027,32.9,34.3,21,0,100,26.2,13.33,0.00,0.00
15min,AgWx,blo,425,10JAN2019:02:30:00,21.0,12.9,23.3,23.0,23.4,23.8,22.9,88,89,88,0.372,20.4,20.9,19.9,0.745,0.6,246,2.5,1.5,-0.00017,-0.00025,32.9,34.3,21,0,100,25.2,13.33,0.00,0.00
15min,AgWx,blo,425,10JAN2019:02:45:00,20.8,12.9,23.3,23.3,23.4,23.6,23.0,88,89,88,0.378,20.4,20.6,20.1,1.14,0.6,242,11,1.2,-0.00017,-0.00024,32.9,34.3,21,0,100,25.3,13.33,0.00,0.00
15min,AgWx,blo,425,10JAN2019:03:00:00,20.7,12.89,22.5,22.3,22.7,23.4,21.9,89,90,89,0.367,20.0,20.6,19.2,2.236,1.6,229,5.5,2.4,-0.00012,-0.00016,32.9,34.3,21,0,100,25.5,13.33,0.00,0.00
15min,AgWx,blo,425,10JAN2019:03:15:00,20.7,12.88,22.2,22.1,22.5,22.8,22.1,91,91,90,0.370,20.1,20.6,19.7,2.192,1.7,238,12,2.3,-0.00012,-0.00016,32.9,34.3,21,0,100,25.2,13.33,0.00,0.00
15min,AgWx,blo,425,10JAN2019:03:30:00,20.8,12.88,24.1,24.1,23.2,24.3,22.1,92,93,91,0.409,21.2,22.5,20.0,1.052,1.9,280,11,2.5,-0.00012,-0.00016,32.9,34.3,21,0,100,25.2,13.33,0.00,0.00
15min,AgWx,blo,425,10JAN2019:03:45:00,20.7,12.88,23.2,22.8,22.6,24.1,20.6,92,93,89,0.383,20.4,22.2,18.3,1.381,1.5,258,11,3.1,-0.00013,-0.00017,32.9,34.3,21,0,100,24.7,13.33,0.00,0.00
15min,AgWx,blo,425,10JAN2019:04:00:00,20.6,12.87,20.8,21.4,23.2,23.7,21.4,92,94,91,0.360,21.2,21.8,19.3,2.258,0.6,265,81,2.5,-0.00017,-0.00025,32.9,34.3,21,0,100,25.6,13.33,0.00,0.00
15min,AgWx,blo,425,10JAN2019:04:15:00,20.8,12.86,23.3,23.2,22.5,23.3,21.0,94,95,92,0.401,21.1,22.0,19.1,0,0.7,240,5.6,3.1,-0.00016,-0.00023,32.9,34.3,21,0,100,26.5,13.33,0.00,0.00
15min,AgWx,blo,425,10JAN2019:04:30:00,21.1,12.86,21.8,21.4,22.1,23.4,20.9,95,95,93,0.376,20.8,22.2,19.3,1.841,1.5,234,43,2.6,-0.00013,-0.00018,32.9,34.3,21,0,100,26.3,13.33,0.00,0.00
15min,AgWx,blo,425,10JAN2019:04:45:00,21.0,12.84,22.5,22.0,21.1,22.3,19.8,96,97,94,0.392,20.0,21.4,18.5,1.096,1.7,254,8.7,3.0,-0.00013,-0.00016,32.9,34.3,21,0,100,25.1,13.33,0.00,0.00
15min,AgWx,blo,425,10JAN2019:05:00:00,21.3,12.84,22.7,22.2,22.2,22.8,21.4,96,97,95,0.392,21.3,21.9,20.2,1.622,1.0,256,16,1.8,-0.00015,-0.00021,32.9,34.3,21,0,100,27.2,13.33,0.00,0.00
15min,AgWx,blo,425,10JAN2019:05:15:00,21.6,12.83,21.6,21.5,22.0,22.3,21.5,95,96,95,0.375,20.9,21.4,20.2,1.206,1.3,235,13,2.2,-0.00014,-0.00019,32.9,34.3,21,0,100,27.5,13.33,0.00,0.00
15min,AgWx,blo,425,10JAN2019:05:30:00,21.9,12.83,22.7,22.6,21.9,22.6,21.5,95,96,95,0.395,20.8,21.5,20.2,1.052,1.4,259,7.5,2.5,-0.00014,-0.00018,32.9,34.3,21,0,100,27.5,13.33,0.00,0.00
15min,AgWx,blo,425,10JAN2019:05:45:00,22.3,12.82,22.9,22.6,22.6,22.8,22.4,95,96,95,0.396,21.4,21.7,21.2,0,0.7,188,35,1.6,-0.00016,-0.00023,32.9,34.3,21,0,100,28.2,13.33,0.00,0.00
15min,AgWx,blo,425,10JAN2019:06:00:00,22.5,12.82,22.9,23.0,22.7,23.0,22.3,96,96,95,0.404,21.7,22.0,21.2,0.811,0.1,174,11,1.0,-0.00020,-0.00031,32.9,34.3,21,0,100,28.9,13.33,0.00,0.00
15min,AgWx,blo,425,10JAN2019:06:15:00,22.8,12.82,22.8,22.3,22.3,22.9,22.0,96,96,96,0.394,21.3,21.9,21.0,2.148,1.7,241,8.5,2.2,-0.00013,-0.00017,33.0,34.3,21,0,100,28.1,13.33,0.00,0.00
15min,AgWx,blo,425,10JAN2019:06:30:00,22.9,12.82,22.5,22.2,22.3,22.5,22.0,96,96,96,0.391,21.3,21.7,21.0,1.206,1.4,241,20,2.3,-0.00014,-0.00019,33.0,34.3,21,0,100,27.9,13.33,0.00,0.00
15min,AgWx,blo,425,10JAN2019:06:45:00,22.9,12.8,22.7,22.6,22.6,23.0,22.1,96,96,96,0.397,21.6,22.1,21.2,2.674,1.6,262,13,2.7,-0.00014,-0.00018,33.0,34.3,21,0,100,26.8,13.33,0.00,0.00
15min,AgWx,blo,425,10JAN2019:07:00:00,22.4,12.8,21.0,21.1,21.2,22.5,20.7,95,96,94,0.370,20.0,21.5,19.3,2.477,2.2,229,11,3.6,-0.00011,-0.00014,32.9,34.3,21,0,100,24.5,13.33,0.00,0.00
15min,AgWx,blo,425,10JAN2019:07:15:00,21.7,12.8,22.0,21.1,20.9,21.2,20.5,95,96,95,0.372,19.8,20.2,19.3,2.017,2.0,251,24,3.9,-0.00012,-0.00015,32.9,34.3,21,0,100,24.1,13.33,0.00,0.00
15min,AgWx,blo,425,10JAN2019:07:30:00,21.3,12.78,22.6,22.8,21.9,22.8,21.2,96,96,96,0.400,20.9,21.8,20.2,1.337,1.3,243,35,2.3,-0.00014,-0.00019,32.9,34.3,21,0,100,25.2,13.33,0.00,0.00
15min,AgWx,blo,425,10JAN2019:07:45:00,21.4,12.8,22.8,22.6,22.3,22.7,22.0,95,96,94,0.393,21.1,21.6,20.6,0,0.8,255,25,2.1,-0.00016,-0.00022,32.9,34.3,21,1,100,26.9,13.33,0.00,0.00
15min,AgWx,blo,425,10JAN2019:08:00:00,21.8,12.78,23.1,23.1,23.0,23.3,22.7,95,95,94,0.402,21.8,22.1,21.4,1.535,1.5,358,15,2.1,-0.00013,-0.00017,32.9,34.3,21,4,100,27.9,13.33,0.00,0.00
15min,AgWx,blo,425,10JAN2019:08:15:00,22.2,12.82,21.6,21.6,22.8,23.3,21.6,95,95,93,0.373,21.5,22.1,19.9,1.951,1.1,291,35,3.4,-0.00011,-0.00012,32.9,34.3,21,11,100,28.7,13.33,0.00,0.00